Tracking 28895 objects as of 29-May-2024
HD Live streaming from Space Station
objects crossing your sky now

OPS 4682 DEB

Track OPS 4682 DEB now!
10-day predictions


NORAD ID: 38385
Int'l Code: 1965-027CN
Perigee: 1,250.6 km
Apogee: 1,316.5 km
Inclination: 90.2 °
Period: 111.1 minutes
Semi major axis: 7654 km
RCS: 0.0101 m2 (small)
Launch date: April 3, 1965
Source: United States (US)
Launch site: AIR FORCE WESTERN TEST RANGE (AFWTR)

Note: This is SATELLITE DEBRIS
Your satellite tracking list
Your tracking list is empty




NASA's NSSDC Master Catalog

Two Line Element Set (TLE):
1 38385U 65027CN  24139.80845541  .00000260  00000-0  88394-3 0  9994
2 38385  90.2468 341.9907 0043024 271.7136  87.9056 12.96347879517050
Source of the keplerian elements: AFSPC